[[{"header":{"parameterUnit":"m.s-1","parameterCategory":2,"la1":30.2991,"la2":30.254,"lo1":-89.0895,"lo2":-89.0444,"dy":0.0017,"dx":0.0017,"nx":28,"ny":28,"refTime":"2023-04-25T21:00:00:Z","depth":"0","parameterNumber":2,"parameterNumberName":"U-component_of_CURRENTS"},"data":[0,0,0,0,0,0,0,0,0,0,0,0,0,0,0,0,0,0,0,0,0,0,0,0,0,0,0,0,0,0,0,0,0,0,0,0,0,0,0,0,0,0,0,0,0,0,0,0,0,0,0,0,0,0,0,0,0,0,0.2774,0.2773,0,0.2744,0.2744,0.2744,0.2653,0.2651,0.2649,0.2647,0.2709,0.2712,0.2716,0,0,0,0,0,0,0,0,0,0,0,0,0,0.2826,0.2826,0.2774,0.2773,0.2773,0.2744,0.2744,0.2744,0.2654,0.2651,0.2648,0.2646,0.2707,0.2712,0.2716,0,0,0,0,0,0,0,0,0,0,0,0,0,0.2803,0.2825,0.2774,0.2722,0.2717,0.2744,0.2744,0.2744,0.2654,0.2651,0.2648,0.2644,0.2706,0.2711,0.2717,0.2818,0,0,0.2734,0.2736,0,0,0,0,0,0,0,0,0.2804,0.2801,0.2731,0.2726,0.272,0.2697,0.2785,0.2772,0.2655,0.2681,0.2647,0.2643,0.2714,0.2719,0.2723,0.2821,0.2824,0.2734,0.2738,0.274,0.2742,0,0,0,0,0,0,0,0.2806,0.2803,0.2764,0.273,0.2724,0.2726,0.2719,0.2782,0.272,0.2678,0.2671,0.2665,0.2712,0.2718,0.2724,0.2825,0.2734,0.2739,0.2743,0.2745,0.3099,0.3105,0,0,0,0,0,0,0.2805,0.2804,0.2765,0.2763,0.2752,0.2727,0.2719,0.271,0.2717,0.2714,0.2668,0.2661,0.271,0.2717,0.2726,0.2893,0.274,0.2745,0.2749,0.3093,0.31,0.3107,0,0,0,0,0,0,0.2806,0.2802,0.2766,0.2781,0.2776,0.2729,0.272,0.2711,0.2712,0.2708,0.2706,0.2676,0.2707,0.2718,0.2796,0.2893,0.2748,0.2753,0.3086,0.3095,0.3104,0.3199,0,0,0,0,0,0,0.2808,0.2802,0.2823,0.2781,0.2775,0.281,0.2723,0.2713,0.2712,0.2703,0.2716,0.2717,0.2706,0.2788,0.2801,0.2898,0.2757,0.3078,0.309,0.3101,0.3188,0.321,0.3229,0,0,0,0,0,0.281,0.2855,0.2824,0.2821,0.2796,0.2813,0.2813,0.2769,0.2716,0.2751,0.2747,0.2717,0.2871,0.2796,0.2811,0.2911,0.3073,0.3087,0.31,0.3179,0.3206,0.3228,0,0,0,0,0,0,0.2902,0.2848,0.2814,0.2842,0.2837,0.2797,0.2827,0.2787,0.2809,0.2802,0.2774,0.278,0.2896,0.2905,0.2823,0.3058,0.2978,0.2995,0.3034,0.3059,0.3079,0.3,0.2762,0,0,0,0,0,0.2929,0.2931,0.2895,0.2919,0.2921,0.2875,0.2881,0.2853,0.2851,0.2853,0.2847,0.2887,0.2973,0.3006,0.3073,0.3188,0.3166,0.3276,0.3296,0.3313,0.3267,0.3342,0.3362,0.3152,0.3152,0.3151,0,0,0.2961,0.294,0.2937,0.2937,0.2923,0.2939,0.2872,0.2896,0.291,0.2867,0.2903,0.2958,0.3023,0.3148,0.3205,0.3157,0.3375,0.333,0.3343,0.3287,0.3358,0.3377,0.3394,0.3161,0.3159,0.3158,0,0,0.3019,0.3019,0.3029,0.3036,0.3031,0.3017,0.3026,0.3001,0.3,0.3059,0.305,0.3132,0.3237,0.3286,0.3334,0.3515,0.3484,0.3587,0.3614,0.3691,0.3705,0.3718,0.3742,0.3756,0.3591,0.3591,0.3591,0,0.3058,0.3053,0.3047,0.3065,0.3065,0.3049,0.3064,0.3091,0.3092,0.3103,0.3089,0.3242,0.3294,0.3435,0.3501,0.3553,0.3574,0.3503,0.3708,0.372,0.3731,0.3752,0.3766,0.3597,0.3596,0.3596,0.3595,0,0.31,0.3109,0.3131,0.3125,0.3152,0.3176,0.3189,0.3224,0.3221,0.3222,0.3342,0.3412,0.3476,0.3569,0.3583,0.3731,0.3715,0.3723,0.3618,0.3756,0.3773,0.3785,0.3606,0.3604,0.3602,0.36,0,0,0.3112,0.3144,0.3143,0.3134,0.3176,0.3185,0.3261,0.3296,0.3304,0.3381,0.3402,0.3588,0.3587,0.3641,0.3705,0.3782,0.3905,0.3788,0.3789,0.376,0.4048,0.3989,0.3996,0.3958,0.396,0.3962,0.4033,0,0.3123,0.3149,0.3173,0.3196,0.32,0.3234,0.3285,0.3334,0.3373,0.3407,0.3518,0.3589,0.3635,0.3679,0.3769,0.387,0.394,0.3881,0.3959,0.396,0.3849,0.401,0.3855,0.3902,0.4045,0.4047,0.4048,0,0.3117,0.3135,0.3155,0.3178,0.3184,0.3208,0.325,0.3297,0.3386,0.342,0.3509,0.357,0.371,0.3721,0.3918,0.3886,0.3958,0.4029,0.4034,0.3932,0.3924,0.379,0.3918,0.3727,0.4067,0.4065,0.4064,0,0.3061,0.3103,0.3108,0.3119,0.3169,0.3183,0.3213,0.3287,0.3316,0.3414,0.3439,0.3597,0.366,0.3807,0.3944,0.3949,0.4128,0.4149,0.4156,0.4151,0.4001,0.3978,0.3895,0.4264,0.4264,0.4264,0.4264,0,0.3028,0.3022,0.3072,0.3067,0.3065,0.3126,0.3133,0.3185,0.3261,0.3293,0.3421,0.3475,0.3688,0.3811,0.3942,0.4077,0.4128,0.416,0.4179,0.4038,0.4019,0.3828,0.377,0.4266,0.4266,0.4265,0.4265,0,0.2939,0.2981,0.2971,0.3018,0.3026,0.3016,0.3061,0.3073,0.3159,0.3204,0.3242,0.3401,0.3564,0.3746,0.3967,0.4049,0.4074,0.4225,0.4017,0.4011,0.3837,0.3793,0.3662,0.3568,0.4254,0.4253,0.4252,0,0.2886,0.2873,0.2902,0.2894,0.2904,0.291,0.2915,0.3003,0.3026,0.3156,0.3174,0.3334,0.3433,0.3709,0.3907,0.4109,0.3992,0.4051,0.4036,0.3798,0.3766,0.3655,0.3577,0.389,0.3886,0.3883,0.3881,0,0.277,0.2782,0.2786,0.2772,0.2765,0.2765,0.2786,0.2794,0.2907,0.2959,0.3043,0.3134,0.339,0.3526,0.3774,0.39,0.3814,0.3996,0.382,0.3523,0.3327,0.3252,0.3836,0.3854,0.3857,0.3859,0.386,0.3861,0.2664,0.2639,0.2646,0.2625,0.262,0.2605,0.2573,0.2632,0.2656,0.2718,0.2873,0.2965,0.3171,0.351,0.3601,0.3594,0.3651,0.351,0.3493,0.3414,0.3256,0.3754,0.3754,0.3756,0.3758,0.3759,0.3761,0,0.2509,0.2512,0.2496,0.2463,0.2413,0.2463,0.2469,0.2439,0.2433,0.2551,0.2622,0.2791,0.2887,0.3059,0.3181,0.3101,0.3035,0.2978,0.2762,0.2731,0.3225,0.3136,0.2915,0.2915,0.2915,0.2915,0.2916,0.2916,0.2429,0.2375,0.238,0.2262,0.2241,0.2152,0.2137,0.2132,0.2192,0.2238,0.2318,0.2445,0.2625,0.2675,0.2598,0.2575,0.2383,0.2283,0.2286,0.2581,0.2627,0.267,0.2569,0.2232,0.2232,0.1674,0.167,0.1666]},{"header":{"parameterUnit":"m.s-1","parameterCategory":2,"la1":30.2991,"la2":30.254,"lo1":-89.0895,"lo2":-89.0444,"dy":0.0017,"dx":0.0017,"nx":28,"ny":28,"refTime":"2023-04-25T21:00:00:Z","depth":"0","parameterNumber":3,"parameterNumberName":"V-component_of_CURRENTS"},"data":[0,0,0,0,0,0,0,0,0,0,0,0,0,0,0,0,0,0,0,0,0,0,0,0,0,0,0,0,0,0,0,0,0,0,0,0,0,0,0,0,0,0,0,0,0,0,0,0,0,0,0,0,0,0,0,0,0,0,0.0182,0.0181,0,0.0097,0.0097,0.0096,-0.0014,-0.0016,-0.0018,-0.002,0.002,0.0023,0.0026,0,0,0,0,0,0,0,0,0,0,0,0,0,0.0239,0.0239,0.0182,0.0181,0.018,0.0097,0.0097,0.0096,-0.0013,-0.0016,-0.0019,-0.0021,0.0019,0.0023,0.0026,0,0,0,0,0,0,0,0,0,0,0,0,0,0.0194,0.0239,0.0183,0.0112,0.0105,0.0098,0.0097,0.0096,-0.0013,-0.0016,-0.0019,-0.0022,0.0018,0.0022,0.0027,0.012,0,0,0.0041,0.0043,0,0,0,0,0,0,0,0,0.0197,0.0193,0.0124,0.0117,0.0109,0.0046,0.0131,0.0108,-0.0012,0.0036,-0.002,-0.0024,0.004,0.0043,0.0038,0.0121,0.0123,0.0041,0.0044,0.0046,0.0047,0,0,0,0,0,0,0,0.02,0.0196,0.0153,0.0123,0.0113,0.0081,0.0071,0.0126,0.0063,0.0032,0.0022,0.0008,0.0037,0.0033,0.0038,0.0124,0.0041,0.0045,0.0048,0.005,0.0399,0.0406,0,0,0,0,0,0,0.0207,0.0199,0.0155,0.015,0.0141,0.0082,0.0072,0.0072,0.0059,0.0052,0.0011,0.0003,0.0027,0.0033,0.0039,0.0197,0.0046,0.005,0.0053,0.0393,0.0401,0.0408,0,0,0,0,0,0,0.0209,0.0205,0.0159,0.0168,0.0159,0.0084,0.0086,0.0072,0.0066,0.0041,0.0036,0.0017,0.0025,0.0033,0.0108,0.0196,0.0052,0.0056,0.0385,0.0395,0.0404,0.0483,0,0,0,0,0,0,0.0212,0.0207,0.0219,0.0169,0.0159,0.0177,0.0088,0.0073,0.006,0.0049,0.0047,0.0045,0.0023,0.0102,0.0113,0.02,0.006,0.0377,0.039,0.0401,0.0472,0.0494,0.0513,0,0,0,0,0,0.0214,0.0239,0.022,0.0215,0.0175,0.018,0.0174,0.011,0.0064,0.0089,0.0085,0.0045,0.0189,0.0109,0.0121,0.0211,0.0371,0.0386,0.04,0.0463,0.049,0.0513,0,0,0,0,0,0,0.0268,0.0229,0.0207,0.0218,0.0211,0.016,0.0166,0.0132,0.0145,0.0132,0.0105,0.0109,0.0213,0.0226,0.014,0.0363,0.0286,0.0303,0.033,0.0355,0.0376,0.0339,0.0064,0,0,0,0,0,0.029,0.0298,0.0265,0.0279,0.0278,0.0232,0.0225,0.0189,0.0183,0.0181,0.0185,0.0222,0.0291,0.0325,0.0377,0.0492,0.0437,0.0575,0.0596,0.0612,0.0601,0.0588,0.0602,0.0456,0.0456,0.0456,0,0,0.0309,0.0293,0.0294,0.0292,0.0275,0.03,0.0222,0.0223,0.0257,0.0194,0.0261,0.0286,0.0339,0.0453,0.0506,0.0467,0.0635,0.0631,0.0643,0.0623,0.0604,0.0617,0.0628,0.0466,0.0464,0.0463,0,0,0.0353,0.0349,0.0366,0.0378,0.0364,0.0354,0.0365,0.0342,0.0347,0.0419,0.0395,0.0463,0.0565,0.0606,0.0645,0.0829,0.0737,0.0881,0.0951,0.094,0.0948,0.0955,0.0903,0.0905,0.0896,0.0896,0.0896,0,0.037,0.0397,0.0378,0.0408,0.0425,0.039,0.043,0.0451,0.046,0.0489,0.046,0.0602,0.0638,0.0768,0.0832,0.0867,0.0821,0.0832,0.0953,0.0959,0.0964,0.091,0.091,0.0902,0.0901,0.09,0.09,0,0.0422,0.0457,0.0478,0.0508,0.0539,0.0571,0.0592,0.0634,0.0641,0.065,0.0762,0.0798,0.0868,0.0931,0.0932,0.1036,0.0978,0.0961,0.0856,0.0981,0.092,0.0918,0.091,0.0908,0.0906,0.0905,0,0,0.0416,0.0495,0.0501,0.0547,0.0594,0.0625,0.0714,0.078,0.0825,0.087,0.0936,0.1066,0.1041,0.1088,0.1108,0.1119,0.1128,0.1062,0.1058,0.0949,0.106,0.1021,0.1014,0.1108,0.1108,0.1109,0.0997,0,0.0457,0.0544,0.0575,0.068,0.0732,0.0764,0.0851,0.091,0.0953,0.1016,0.1062,0.1135,0.112,0.1148,0.1161,0.1148,0.1129,0.1157,0.1009,0.1004,0.0903,0.1014,0.1014,0.0915,0.0995,0.0994,0.0994,0,0.0488,0.055,0.0655,0.0776,0.08,0.0861,0.0977,0.1047,0.113,0.1158,0.1209,0.1216,0.1282,0.1227,0.1211,0.122,0.1142,0.1105,0.1099,0.1025,0.0964,0.0813,0.0908,0.074,0.099,0.099,0.0991,0,0.0496,0.0609,0.0702,0.0742,0.0866,0.0926,0.0992,0.1084,0.1151,0.1229,0.1258,0.1308,0.1328,0.1268,0.1206,0.1197,0.1138,0.1111,0.0988,0.0981,0.0935,0.0925,0.0796,0.1049,0.1049,0.105,0.105,0,0.0536,0.061,0.0711,0.0767,0.0877,0.095,0.1061,0.1126,0.1212,0.1291,0.1314,0.1363,0.1333,0.1301,0.1218,0.1109,0.1137,0.1003,0.0964,0.0971,0.0965,0.0778,0.072,0.1045,0.1046,0.1047,0.1048,0,0.0545,0.061,0.0718,0.0846,0.0886,0.0963,0.1094,0.1168,0.1235,0.1329,0.1352,0.1402,0.1379,0.1315,0.1226,0.1122,0.0944,0.0956,0.0952,0.0916,0.0655,0.0605,0.0475,0.0428,0.0808,0.0807,0.0806,0,0.057,0.0623,0.0756,0.0814,0.0875,0.0987,0.1065,0.1169,0.1243,0.1353,0.1397,0.1409,0.1435,0.1294,0.1152,0.0991,0.0879,0.0828,0.0828,0.0645,0.056,0.0542,0.0511,0.0791,0.079,0.0789,0.0788,0,0.0613,0.0646,0.073,0.0836,0.0925,0.1033,0.1145,0.1203,0.1322,0.1389,0.1468,0.1495,0.1401,0.1286,0.1076,0.0954,0.0746,0.08,0.0626,0.0556,0.0514,0.0448,0.0824,0.0779,0.078,0.0781,0.0781,0.0782,0.0631,0.0682,0.077,0.0872,0.0967,0.107,0.1141,0.1245,0.1351,0.1456,0.1499,0.1563,0.1395,0.1149,0.0964,0.0611,0.0654,0.0471,0.0426,0.0422,0.0388,0.0729,0.0639,0.0639,0.0639,0.0639,0.0639,0,0.0658,0.0714,0.0805,0.0921,0.1003,0.1058,0.1192,0.1251,0.1349,0.1474,0.1541,0.1539,0.1264,0.1013,0.057,0.0283,0.0229,0.0116,0.0081,0.007,0.0369,0.0378,0.021,0.021,0.021,0.021,0.0211,0.0211,0.0677,0.0753,0.0799,0.0927,0.0997,0.109,0.1154,0.1241,0.1349,0.1472,0.1564,0.1646,0.1485,0.0629,0.0048,-0.0075,-0.0236,-0.0278,-0.0363,-0.019,-0.016,-0.0132,-0.0141,-0.0415,-0.0416,-0.0625,-0.0628,-0.063]}],[{"header":{"parameterUnit":"m.s-1","parameterCategory":2,"la1":30.2991,"la2":30.254,"lo1":-89.0895,"lo2":-89.0444,"dy":0.0017,"dx":0.0017,"nx":28,"ny":28,"refTime":"2023-04-25T21:00:00:Z","depth":"2","parameterNumber":2,"parameterNumberName":"U-component_of_CURRENTS"},"data":[0,0,0,0,0,0,0,0,0,0,0,0,0,0,0,0,0,0,0,0,0,0,0,0,0,0,0,0,0,0,0,0,0,0,0,0,0,0,0,0,0,0,0,0,0,0,0,0,0,0,0,0,0,0,0,0,0,0,0.2823,0.2823,0,0.279,0.2789,0.2789,0.2692,0.269,0.2687,0.2685,0.2766,0.277,0.2775,0,0,0,0,0,0,0,0,0,0,0,0,0,0.2865,0.2865,0.2824,0.2823,0.2822,0.279,0.2789,0.2789,0.2692,0.2689,0.2687,0.2684,0.2765,0.277,0.2775,0,0,0,0,0,0,0,0,0,0,0,0,0,0.2842,0.2865,0.2824,0.2769,0.2764,0.279,0.2789,0.2789,0.2693,0.2689,0.2686,0.2683,0.2763,0.2769,0.2776,0.2883,0,0,0.2795,0.2798,0,0,0,0,0,0,0,0,0.2844,0.2841,0.2778,0.2773,0.2767,0.274,0.2834,0.2826,0.2694,0.2721,0.2685,0.2681,0.277,0.2775,0.2777,0.2887,0.289,0.2796,0.28,0.2802,0.2804,0,0,0,0,0,0,0,0.2845,0.2842,0.2812,0.2777,0.2771,0.2767,0.276,0.2832,0.2768,0.2719,0.2711,0.2706,0.2767,0.2771,0.2779,0.2891,0.2796,0.2801,0.2805,0.2808,0.3118,0.3122,0,0,0,0,0,0,0.2847,0.2844,0.2813,0.281,0.2796,0.2769,0.2761,0.2753,0.2765,0.2762,0.2709,0.2702,0.2762,0.2771,0.2781,0.2945,0.2802,0.2808,0.2812,0.3113,0.3119,0.3123,0,0,0,0,0,0,0.2848,0.2845,0.2814,0.2825,0.2821,0.2771,0.2764,0.2754,0.2754,0.2756,0.2754,0.2716,0.2759,0.2772,0.2847,0.2946,0.2811,0.2817,0.3108,0.3115,0.3121,0.325,0,0,0,0,0,0,0.285,0.2846,0.2864,0.2825,0.282,0.2854,0.2767,0.2756,0.2755,0.2745,0.2764,0.2766,0.2758,0.2837,0.2853,0.2952,0.2822,0.3103,0.3111,0.3119,0.324,0.326,0.3277,0,0,0,0,0,0.2851,0.2879,0.2865,0.2862,0.2839,0.2857,0.2856,0.2809,0.2759,0.279,0.2783,0.2766,0.2901,0.2846,0.2864,0.2966,0.3099,0.3109,0.3118,0.3232,0.3256,0.3277,0,0,0,0,0,0,0.2916,0.2871,0.2854,0.287,0.2877,0.2839,0.2861,0.2828,0.2846,0.2836,0.2816,0.2823,0.293,0.2936,0.2875,0.3082,0.3003,0.3016,0.3083,0.3106,0.3125,0.3055,0.2827,0,0,0,0,0,0.2941,0.2942,0.2918,0.2939,0.2943,0.2909,0.2914,0.2888,0.2886,0.2886,0.289,0.2921,0.2993,0.3031,0.3083,0.3202,0.3155,0.3283,0.3301,0.3317,0.3275,0.3289,0.3303,0.3156,0.3156,0.3156,0,0,0.2969,0.295,0.295,0.2954,0.2948,0.2968,0.2904,0.2925,0.2947,0.2904,0.2948,0.2989,0.3037,0.3153,0.3205,0.3167,0.3347,0.3329,0.3342,0.329,0.3301,0.3314,0.3326,0.3163,0.3161,0.316,0,0,0.3018,0.3017,0.3028,0.304,0.3045,0.3035,0.3046,0.303,0.3032,0.3098,0.3077,0.3157,0.325,0.3297,0.3338,0.35,0.3442,0.3544,0.3589,0.3607,0.3617,0.3625,0.3621,0.3628,0.3558,0.3558,0.3558,0,0.3057,0.3053,0.3046,0.3067,0.307,0.3065,0.3084,0.3116,0.3126,0.3139,0.313,0.3252,0.3317,0.3436,0.3497,0.3542,0.3513,0.35,0.3625,0.3632,0.3638,0.3631,0.3637,0.3565,0.3565,0.3564,0.3563,0,0.3096,0.3108,0.3126,0.3134,0.3161,0.3185,0.3209,0.3247,0.3253,0.3262,0.3364,0.3437,0.3488,0.3575,0.3591,0.3698,0.3653,0.3641,0.3552,0.3659,0.3648,0.3651,0.3576,0.3573,0.3571,0.3569,0,0,0.3115,0.314,0.3143,0.3152,0.3185,0.3207,0.3275,0.3316,0.3331,0.3409,0.3427,0.3609,0.3608,0.3652,0.3705,0.3747,0.3823,0.3714,0.3712,0.368,0.3829,0.366,0.3646,0.3817,0.3817,0.3818,0.3815,0,0.3134,0.3165,0.3176,0.3223,0.3234,0.3263,0.331,0.3363,0.3404,0.3438,0.3538,0.3598,0.3655,0.3689,0.3749,0.3794,0.3829,0.3821,0.3753,0.375,0.3561,0.3644,0.3332,0.3289,0.3818,0.3818,0.3818,0,0.314,0.3158,0.3183,0.3223,0.3231,0.3265,0.3307,0.3356,0.3427,0.3456,0.3525,0.3567,0.3684,0.3692,0.3797,0.3779,0.3803,0.383,0.3831,0.3606,0.3584,0.3264,0.3273,0.3822,0.3822,0.3821,0.3821,0,0.3106,0.3158,0.3169,0.3184,0.3237,0.3256,0.3288,0.3348,0.3376,0.3448,0.3469,0.3573,0.3635,0.368,0.3762,0.3775,0.3817,0.3847,0.371,0.3699,0.338,0.3337,0.3876,0.3876,0.3876,0.3876,0.3876,0,0.3083,0.3093,0.3152,0.3156,0.3167,0.3227,0.324,0.3284,0.3337,0.3369,0.3464,0.3506,0.3629,0.3677,0.3729,0.371,0.3796,0.3695,0.368,0.3423,0.3387,0.3794,0.3784,0.3876,0.3876,0.3876,0.3876,0,0.3007,0.3049,0.3062,0.3123,0.3138,0.314,0.3187,0.3202,0.3272,0.331,0.3335,0.3465,0.3534,0.3607,0.3687,0.366,0.3663,0.3628,0.3304,0.3249,0.3545,0.3543,0.3482,0.3475,0.347,0.3466,0.3462,0,0.2961,0.2962,0.3011,0.301,0.3024,0.3047,0.3053,0.3136,0.3165,0.3285,0.3303,0.3391,0.3418,0.3443,0.3381,0.3353,0.3542,0.3064,0.3039,0.3509,0.3502,0.3509,0.3514,0.2699,0.269,0.2682,0.2676,0,0.2867,0.2884,0.2895,0.2889,0.2897,0.2912,0.295,0.2956,0.3067,0.3104,0.3171,0.3194,0.3196,0.3019,0.2952,0.2914,0.3038,0.29,0.3465,0.2838,0.2768,0.2763,0.2794,0.2606,0.2613,0.2618,0.2622,0.2624,0.2781,0.2755,0.2769,0.276,0.2762,0.2757,0.2747,0.2808,0.2818,0.2808,0.2916,0.2798,0.2739,0.2453,0.2406,0.2379,0.2596,0.2505,0.2531,0.2566,0.2466,0.2388,0.2137,0.2141,0.2144,0.2148,0.215,0,0.2647,0.2645,0.2642,0.2619,0.2583,0.2631,0.266,0.2632,0.2608,0.2522,0.2484,0.2047,0.1911,0.1949,0.1779,0.177,0.1785,0.1744,0.1759,0.1825,0.1884,0.1755,0.1235,0.1233,0.1232,0.123,0,0,0.2565,0.2522,0.2534,0.245,0.2435,0.2361,0.2358,0.2337,0.227,0.196,0.1755,0.1698,0.1765,0.1402,0.1385,0.1327,0.1577,0.1263,0.1976,0.2053,0.2111,0.2276,0.2142,0,0,0,0,0]},{"header":{"parameterUnit":"m.s-1","parameterCategory":2,"la1":30.2991,"la2":30.254,"lo1":-89.0895,"lo2":-89.0444,"dy":0.0017,"dx":0.0017,"nx":28,"ny":28,"refTime":"2023-04-25T21:00:00:Z","depth":"2","parameterNumber":3,"parameterNumberName":"V-component_of_CURRENTS"},"data":[0,0,0,0,0,0,0,0,0,0,0,0,0,0,0,0,0,0,0,0,0,0,0,0,0,0,0,0,0,0,0,0,0,0,0,0,0,0,0,0,0,0,0,0,0,0,0,0,0,0,0,0,0,0,0,0,0,0,-0.0053,-0.0054,0,-0.0123,-0.0124,-0.0124,-0.0194,-0.0195,-0.0196,-0.0197,-0.0198,-0.0197,-0.0196,0,0,0,0,0,0,0,0,0,0,0,0,0,0.0008,0.0008,-0.0052,-0.0054,-0.0055,-0.0123,-0.0124,-0.0125,-0.0194,-0.0195,-0.0197,-0.0198,-0.0199,-0.0197,-0.0196,0,0,0,0,0,0,0,0,0,0,0,0,0,-0.0033,0.0008,-0.0052,-0.01,-0.0105,-0.0123,-0.0124,-0.0125,-0.0193,-0.0195,-0.0197,-0.0199,-0.0199,-0.0197,-0.0196,-0.0149,0,0,-0.0191,-0.019,0,0,0,0,0,0,0,0,-0.003,-0.0034,-0.0092,-0.0097,-0.0103,-0.0155,-0.0103,-0.013,-0.0193,-0.0156,-0.0197,-0.02,-0.0178,-0.0178,-0.0184,-0.0149,-0.0149,-0.019,-0.0189,-0.0189,-0.0188,0,0,0,0,0,0,0,-0.0027,-0.0032,-0.0077,-0.0093,-0.01,-0.0123,-0.0131,-0.0109,-0.0152,-0.016,-0.0166,-0.0178,-0.018,-0.0185,-0.0184,-0.0149,-0.0191,-0.0189,-0.0188,-0.0187,-0.0152,-0.0152,0,0,0,0,0,0,-0.0023,-0.0029,-0.0075,-0.008,-0.0074,-0.0123,-0.0131,-0.0133,-0.0154,-0.0161,-0.0177,-0.0181,-0.0187,-0.0186,-0.0184,-0.0123,-0.0189,-0.0187,-0.0186,-0.0152,-0.0152,-0.0152,0,0,0,0,0,0,-0.0021,-0.0025,-0.0072,-0.0059,-0.0068,-0.0123,-0.0124,-0.0134,-0.0136,-0.0168,-0.0173,-0.0169,-0.0188,-0.0186,-0.017,-0.0124,-0.0186,-0.0185,-0.0152,-0.0152,-0.0152,-0.0004,0,0,0,0,0,0,-0.0018,-0.0024,-0.0016,-0.0058,-0.0068,-0.0083,-0.0123,-0.0134,-0.0143,-0.0149,-0.0163,-0.0166,-0.019,-0.0172,-0.0168,-0.0123,-0.0184,-0.0152,-0.0152,-0.0152,-0.0009,0.0001,0.0009,0,0,0,0,0,-0.0016,-0.0028,-0.0015,-0.0021,-0.0058,-0.0083,-0.0089,-0.0133,-0.014,-0.0139,-0.0151,-0.0165,-0.0172,-0.017,-0.0165,-0.0118,-0.0152,-0.0152,-0.0152,-0.0013,-0.0001,0.0009,0,0,0,0,0,0,-0.0016,-0.0037,-0.0025,-0.0044,-0.0051,-0.0096,-0.0112,-0.0115,-0.0122,-0.0126,-0.0145,-0.0148,-0.013,-0.0149,-0.0147,-0.012,-0.0171,-0.017,-0.0067,-0.0056,-0.0047,-0.0085,-0.0182,0,0,0,0,0,-0.0001,-0.0006,-0.002,-0.0032,-0.0035,-0.0055,-0.0066,-0.0083,-0.01,-0.0106,-0.0107,-0.012,-0.0126,-0.0111,-0.0132,-0.0082,-0.0155,-0.0063,-0.0054,-0.0045,-0.008,-0.0174,-0.0176,-0.0152,-0.0152,-0.0152,0,0,-0.0014,-0.0017,-0.0026,-0.0029,-0.0042,-0.004,-0.0067,-0.0083,-0.0069,-0.0099,-0.0077,-0.0087,-0.0115,-0.0088,-0.0079,-0.009,-0.0077,-0.0045,-0.0037,-0.0078,-0.0174,-0.0177,-0.0179,-0.0152,-0.0152,-0.0152,0,0,-0.0032,-0.0029,-0.003,-0.0024,-0.0026,-0.0034,-0.0027,-0.0039,-0.0036,-0.001,-0.0037,-0.0025,-0.0017,-0.0025,-0.0029,0.0019,-0.0042,0.0024,0.0072,-0.0016,-0.0019,-0.0022,-0.0053,-0.0061,0.005,0.005,0.005,0,-0.0039,-0.0033,-0.0035,-0.0022,-0.001,-0.0023,-0.0002,-0.0004,-0.0002,0.002,0.0,-0.0,0.0,0.0026,0.0041,0.0044,-0.0012,0.0052,-0.0002,-0.0008,-0.0015,-0.0046,-0.0056,0.0057,0.0056,0.0056,0.0055,0,-0.0053,-0.0032,-0.0039,-0.001,0.0013,0.0011,0.0031,0.0054,0.0067,0.0072,0.0094,0.0079,0.0079,0.0096,0.0091,0.0077,0.0054,0.001,-0.0021,-0.0008,-0.0041,-0.0054,0.0067,0.0065,0.0063,0.0061,0,0,-0.0103,-0.0057,-0.0051,-0.0011,0.0026,0.004,0.0083,0.0119,0.0158,0.0145,0.0172,0.0178,0.0171,0.0159,0.0164,0.0105,0.0066,0.0055,0.0047,0.004,-0.0099,-0.0151,-0.0171,0.0009,0.0006,0.0004,-0.008,0,-0.0107,-0.0061,-0.0031,0.0023,0.0055,0.0092,0.0151,0.0194,0.0215,0.0233,0.0203,0.0219,0.0197,0.0223,0.0156,0.007,0.0023,0.0093,-0.013,-0.0136,-0.0172,-0.0192,-0.0046,-0.0115,-0.0094,-0.0096,-0.0098,0,-0.0113,-0.0074,-0.0,0.0091,0.0111,0.0163,0.027,0.0314,0.0342,0.0354,0.034,0.0302,0.0258,0.0208,0.0047,0.0091,0.0001,-0.0081,-0.0087,-0.0216,-0.0217,-0.0143,-0.0142,-0.0122,-0.012,-0.0118,-0.0117,0,-0.0099,-0.005,0.0025,0.005,0.0151,0.0224,0.0286,0.0373,0.0422,0.0432,0.0449,0.036,0.0325,0.0162,0.0003,0.0026,-0.0229,-0.0209,-0.0337,-0.0338,-0.0306,-0.0302,-0.0361,-0.0361,-0.036,-0.036,-0.036,0,-0.0098,-0.0041,0.0043,0.0094,0.0201,0.0278,0.0399,0.0453,0.0507,0.0556,0.0523,0.0488,0.0295,0.0137,-0.0012,-0.0235,-0.0239,-0.0359,-0.039,-0.0244,-0.0233,-0.0332,-0.0328,-0.0363,-0.0363,-0.0362,-0.0361,0,-0.0072,-0.0024,0.006,0.0174,0.023,0.0321,0.0464,0.0527,0.0604,0.0652,0.0654,0.0552,0.0338,0.0134,-0.0145,-0.0233,-0.0448,-0.0525,-0.0319,-0.0327,-0.0472,-0.0459,-0.0638,-0.0641,-0.0644,-0.0646,-0.0648,0,-0.0052,0.0001,0.0128,0.0199,0.0266,0.0396,0.0497,0.058,0.0618,0.0674,0.0658,0.0501,0.0347,-0.0056,-0.0242,-0.0498,-0.0587,-0.0534,-0.048,-0.0502,-0.0514,-0.0496,-0.048,-0.033,-0.0329,-0.0328,-0.0327,0,-0.0003,0.0051,0.0122,0.025,0.0362,0.045,0.057,0.0586,0.0672,0.0679,0.0601,0.0492,0.0238,-0.0006,-0.0305,-0.0456,-0.048,-0.053,-0.0642,-0.0305,-0.0226,-0.0232,-0.0224,-0.0321,-0.0321,-0.0322,-0.0322,-0.0322,0.0037,0.0084,0.0186,0.0291,0.0419,0.0491,0.0536,0.056,0.0565,0.062,0.0544,0.0498,0.0354,-0.0001,-0.0258,-0.0459,-0.0479,-0.0509,-0.0505,-0.0503,-0.0476,-0.041,-0.0528,-0.053,-0.0531,-0.0533,-0.0534,0,0.0053,0.0127,0.0227,0.0339,0.0432,0.0526,0.0585,0.0547,0.0488,0.0637,0.0605,0.0527,0.0329,0.0099,-0.0122,-0.0312,-0.0257,-0.0432,-0.028,-0.0285,-0.029,-0.0247,-0.0241,-0.0242,-0.0242,-0.0243,0,0,0.0071,0.0128,0.0161,0.0307,0.0434,0.0533,0.0559,0.0456,0.0507,0.0552,0.068,0.0796,0.0516,0.0406,0.0131,-0.0051,-0.0122,-0.0086,-0.0285,-0.0072,-0.0074,-0.029,-0.0225,0,0,0,0,0]}],[{"header":{"parameterUnit":"m.s-1","parameterCategory":2,"la1":30.2991,"la2":30.254,"lo1":-89.0895,"lo2":-89.0444,"dy":0.0017,"dx":0.0017,"nx":28,"ny":28,"refTime":"2023-04-25T21:00:00:Z","depth":"4","parameterNumber":2,"parameterNumberName":"U-component_of_CURRENTS"},"data":[0,0,0,0,0,0,0,0,0,0,0,0,0,0,0,0,0,0,0,0,0,0,0,0,0,0,0,0,0,0,0,0,0,0,0,0,0,0,0,0,0,0,0,0,0,0,0,0,0,0,0,0,0,0,0,0,0,0,0.0533,0.0534,0,0.0696,0.0698,0.07,0.0946,0.0951,0.0955,0.0959,0.1169,0.117,0.1172,0,0,0,0,0,0,0,0,0,0,0,0,0,0.0383,0.0385,0.0532,0.0534,0.0537,0.0696,0.0698,0.07,0.0946,0.0951,0.0956,0.0961,0.1168,0.117,0.1172,0,0,0,0,0,0,0,0,0,0,0,0,0,0.0487,0.0386,0.0532,0.0679,0.0694,0.0696,0.0698,0.0701,0.0944,0.0951,0.0958,0.0964,0.1168,0.117,0.1172,0.1052,0,0,0.1179,0.118,0,0,0,0,0,0,0,0,0.0481,0.0492,0.0655,0.0669,0.0685,0.0809,0.0723,0.0821,0.0943,0.0848,0.0959,0.0967,0.1048,0.106,0.1075,0.1062,0.1071,0.1179,0.118,0.1181,0.1182,0,0,0,0,0,0,0,0.0473,0.0486,0.0597,0.0657,0.0675,0.072,0.0742,0.0742,0.0909,0.0857,0.0875,0.0893,0.1058,0.1072,0.1082,0.1074,0.1179,0.1181,0.1182,0.1183,0.1277,0.1279,0,0,0,0,0,0,0.045,0.0479,0.0591,0.0602,0.0598,0.0717,0.0743,0.0761,0.0909,0.0937,0.0887,0.0904,0.1065,0.1079,0.109,0.1235,0.1181,0.1183,0.1184,0.1276,0.1278,0.1279,0,0,0,0,0,0,0.0446,0.0458,0.0585,0.0545,0.0565,0.0714,0.0732,0.0761,0.0884,0.0931,0.0963,0.0993,0.1071,0.1087,0.1185,0.1235,0.1184,0.1186,0.1275,0.1277,0.1278,0.1346,0,0,0,0,0,0,0.0441,0.0455,0.0494,0.0543,0.0566,0.065,0.0727,0.076,0.0878,0.0905,0.1028,0.105,0.1077,0.1182,0.1187,0.1237,0.1188,0.1273,0.1276,0.1278,0.1342,0.135,0.1356,0,0,0,0,0,0.0435,0.0434,0.0494,0.0511,0.0603,0.0651,0.0668,0.0794,0.0877,0.093,0.1027,0.1052,0.1201,0.1184,0.119,0.1242,0.1272,0.1275,0.1278,0.1339,0.1348,0.1356,0,0,0,0,0,0,0.0395,0.0461,0.0528,0.0556,0.0636,0.0695,0.0745,0.083,0.0943,0.0991,0.1059,0.1084,0.1185,0.1191,0.1172,0.1274,0.1241,0.1245,0.1286,0.1294,0.1301,0.1324,0.119,0,0,0,0,0,0.0396,0.0425,0.0502,0.0537,0.0573,0.0676,0.0726,0.0812,0.0895,0.096,0.105,0.1127,0.1172,0.1227,0.1258,0.1304,0.1306,0.1342,0.135,0.1356,0.1377,0.1396,0.1407,0.1288,0.1288,0.1288,0,0,0.0391,0.0432,0.0455,0.0534,0.0601,0.0668,0.0727,0.0811,0.0903,0.095,0.1114,0.1152,0.1188,0.1259,0.1304,0.1294,0.1392,0.1359,0.1364,0.1383,0.14,0.1411,0.1422,0.129,0.1289,0.1289,0,0,0.0384,0.0434,0.0474,0.0536,0.0644,0.0692,0.0738,0.0851,0.095,0.1061,0.1125,0.1212,0.1291,0.1338,0.1361,0.1418,0.142,0.1429,0.1499,0.1516,0.1526,0.1535,0.1558,0.1569,0.1443,0.1443,0.1443,0,0.0405,0.0455,0.0495,0.0558,0.0618,0.0718,0.0791,0.0872,0.1021,0.1094,0.1137,0.1287,0.1327,0.141,0.1447,0.1439,0.1447,0.1465,0.1526,0.1535,0.1543,0.1565,0.1575,0.1447,0.1446,0.1446,0.1446,0,0.0424,0.0503,0.0521,0.0641,0.0699,0.0766,0.0869,0.0978,0.1093,0.1179,0.1319,0.1368,0.1467,0.1482,0.1491,0.1572,0.1559,0.1524,0.1506,0.1559,0.1578,0.1588,0.1452,0.145,0.1449,0.1449,0,0,0.0392,0.0521,0.0548,0.062,0.0753,0.0792,0.0929,0.1065,0.1179,0.1308,0.144,0.1526,0.1575,0.1603,0.1623,0.1652,0.1719,0.1629,0.1628,0.1656,0.177,0.1521,0.1507,0.1693,0.1695,0.1697,0.1762,0,0.0433,0.0538,0.0603,0.0731,0.0784,0.0906,0.1022,0.1155,0.1275,0.1418,0.1493,0.1605,0.1611,0.1666,0.1701,0.1703,0.1748,0.1705,0.1712,0.1712,0.1486,0.1511,0.1703,0.177,0.1772,0.1773,0.1775,0,0.0446,0.0511,0.0636,0.0777,0.082,0.0939,0.112,0.1232,0.1423,0.1512,0.1634,0.1692,0.1786,0.1763,0.1829,0.1802,0.1813,0.1808,0.1809,0.1561,0.148,0.1703,0.1792,0.1791,0.1789,0.1788,0.1787,0,0.0367,0.0531,0.0629,0.0682,0.0861,0.0988,0.111,0.1301,0.1387,0.1588,0.1641,0.1775,0.1811,0.1865,0.1825,0.1864,0.1837,0.1884,0.1682,0.1666,0.1845,0.1835,0.1943,0.1943,0.1943,0.1943,0.1943,0,0.0354,0.0438,0.0632,0.0688,0.0832,0.0975,0.1154,0.1294,0.147,0.1529,0.169,0.1693,0.1831,0.1811,0.1839,0.1729,0.1845,0.1699,0.1658,0.1872,0.1864,0.1853,0.1841,0.1945,0.1945,0.1944,0.1944,0,0.0275,0.0402,0.0502,0.0718,0.0807,0.0917,0.1158,0.1237,0.143,0.1503,0.1555,0.1646,0.1623,0.1676,0.1713,0.1678,0.1644,0.1574,0.177,0.1738,0.1502,0.1494,0.1472,0.1463,0.1456,0.145,0.1445,0,0.0252,0.0302,0.0495,0.0564,0.0703,0.0888,0.0988,0.121,0.1244,0.1402,0.1362,0.1422,0.1455,0.1317,0.1392,0.1429,0.1406,0.142,0.1529,0.1487,0.1451,0.1454,0.1456,0.1434,0.1432,0.143,0.1428,0,0.019,0.0274,0.0349,0.0473,0.0607,0.0691,0.0848,0.0873,0.1056,0.1204,0.1175,0.1216,0.1152,0.118,0.1153,0.118,0.1444,0.1348,0.1368,0.1472,0.1441,0.1413,0.1423,0.1403,0.1407,0.1409,0.1411,0,0.0144,0.0161,0.0261,0.0374,0.0477,0.0503,0.0607,0.0662,0.0747,0.0946,0.089,0.0978,0.1077,0.1036,0.0994,0.0997,0.1079,0.1125,0.1159,0.1187,0.1055,0.0971,0.0754,0,0,0,0,0,0.0099,0.0106,0.0159,0.0258,0.0331,0.0398,0.0491,0.0572,0.0737,0.0677,0.0823,0.0776,0.0811,0.0818,0.0783,0.0875,0.1058,0.0829,0.1123,0.1266,0.1295,0.116,0,0,0,0,0,0,0.0065,0.0102,0.011,0.0135,0.0178,0.0231,0.0284,0.0381,0.0362,0.0549,0.0538,0.0716,0.071,0.0819,0.0762,0.0775,0.0942,0.09,0.0898,0.125,0.1276,0.1299,0.1171,0,0,0,0,0]},{"header":{"parameterUnit":"m.s-1","parameterCategory":2,"la1":30.2991,"la2":30.254,"lo1":-89.0895,"lo2":-89.0444,"dy":0.0017,"dx":0.0017,"nx":28,"ny":28,"refTime":"2023-04-25T21:00:00:Z","depth":"4","parameterNumber":3,"parameterNumberName":"V-component_of_CURRENTS"},"data":[0,0,0,0,0,0,0,0,0,0,0,0,0,0,0,0,0,0,0,0,0,0,0,0,0,0,0,0,0,0,0,0,0,0,0,0,0,0,0,0,0,0,0,0,0,0,0,0,0,0,0,0,0,0,0,0,0,0,0.003,0.003,0,-0.0082,-0.0084,-0.0085,-0.017,-0.017,-0.017,-0.017,-0.0437,-0.0444,-0.045,0,0,0,0,0,0,0,0,0,0,0,0,0,0.0052,0.0053,0.0031,0.003,0.0029,-0.0082,-0.0084,-0.0086,-0.017,-0.017,-0.017,-0.0171,-0.0435,-0.0443,-0.0451,0,0,0,0,0,0,0,0,0,0,0,0,0,-0.0003,0.0053,0.0031,-0.0022,-0.0028,-0.0081,-0.0084,-0.0086,-0.017,-0.017,-0.017,-0.0171,-0.0432,-0.0442,-0.0452,-0.0508,0,0,-0.0483,-0.0488,0,0,0,0,0,0,0,0,0.0,-0.0004,-0.0014,-0.0019,-0.0025,-0.0107,-0.0174,-0.0233,-0.017,-0.0122,-0.017,-0.0171,-0.0337,-0.0355,-0.0381,-0.052,-0.0532,-0.0484,-0.0491,-0.0495,-0.0498,0,0,0,0,0,0,0,0.0004,-0.0001,-0.002,-0.0014,-0.0021,-0.0082,-0.0089,-0.0186,-0.0233,-0.0126,-0.0131,-0.0135,-0.0342,-0.0371,-0.0388,-0.0536,-0.0484,-0.0493,-0.05,-0.0504,-0.0791,-0.0792,0,0,0,0,0,0,0.0036,0.0004,-0.0016,-0.0022,-0.0007,-0.0081,-0.009,-0.0085,-0.0229,-0.0248,-0.0134,-0.0138,-0.0353,-0.0376,-0.0398,-0.0515,-0.0495,-0.0505,-0.0511,-0.0789,-0.0791,-0.0793,0,0,0,0,0,0,0.0037,0.0036,-0.0011,-0.0009,-0.0018,-0.0079,-0.0074,-0.0087,-0.0167,-0.0232,-0.0256,-0.0206,-0.0354,-0.0384,-0.0517,-0.0525,-0.0509,-0.0519,-0.0788,-0.079,-0.0792,-0.0723,0,0,0,0,0,0,0.0038,0.0037,0.0025,-0.0006,-0.0017,-0.0042,-0.0074,-0.0089,-0.0163,-0.0171,-0.0301,-0.0323,-0.0357,-0.0501,-0.0527,-0.0539,-0.0527,-0.0786,-0.0789,-0.0791,-0.0724,-0.0723,-0.0722,0,0,0,0,0,0.004,0.0081,0.0026,0.0022,-0.0021,-0.0041,-0.0054,-0.0103,-0.0166,-0.0185,-0.0293,-0.0322,-0.0535,-0.0512,-0.0542,-0.0556,-0.0784,-0.0788,-0.0791,-0.0724,-0.0723,-0.0722,0,0,0,0,0,0,0.0097,0.0075,0.0015,0.0044,-0.0014,-0.0054,-0.0061,-0.0139,-0.0241,-0.0272,-0.0363,-0.0391,-0.05,-0.0555,-0.0527,-0.0647,-0.0657,-0.0667,-0.0596,-0.0596,-0.0595,-0.0513,-0.0535,0,0,0,0,0,0.0097,0.011,0.0055,0.0066,0.0046,-0.0043,-0.0073,-0.0126,-0.0203,-0.0251,-0.0359,-0.046,-0.0529,-0.0587,-0.0661,-0.0754,-0.0733,-0.0778,-0.0777,-0.0775,-0.073,-0.0714,-0.0705,-0.0803,-0.0803,-0.0803,0,0,0.013,0.0109,0.0118,0.0074,0.0028,0.0023,-0.0062,-0.0106,-0.0135,-0.0267,-0.037,-0.0478,-0.0557,-0.0632,-0.0685,-0.0687,-0.0741,-0.078,-0.0777,-0.0732,-0.0716,-0.0705,-0.0696,-0.0806,-0.0805,-0.0805,0,0,0.023,0.0169,0.0216,0.0174,0.01,0.0042,0.0013,-0.0089,-0.0156,-0.0281,-0.0359,-0.0462,-0.0628,-0.0641,-0.0674,-0.0723,-0.074,-0.0787,-0.0716,-0.0702,-0.0692,-0.0682,-0.0644,-0.0631,-0.0782,-0.0782,-0.0782,0,0.0264,0.029,0.022,0.0243,0.0211,0.0051,0.0063,-0.0008,-0.016,-0.0209,-0.0302,-0.0497,-0.0594,-0.0609,-0.0638,-0.071,-0.0715,-0.0708,-0.0693,-0.0684,-0.0675,-0.0638,-0.0625,-0.0779,-0.078,-0.078,-0.078,0,0.0387,0.0387,0.0413,0.0377,0.0333,0.0311,0.0206,0.0113,-0.0039,-0.0121,-0.0242,-0.0379,-0.048,-0.0541,-0.0621,-0.0616,-0.0644,-0.0691,-0.0676,-0.066,-0.0624,-0.0611,-0.0775,-0.0776,-0.0777,-0.0778,0,0,0.0504,0.0504,0.0508,0.048,0.0381,0.0355,0.0311,0.0225,0.0192,0.0006,-0.0027,-0.0189,-0.0309,-0.0352,-0.0467,-0.0478,-0.0458,-0.058,-0.0581,-0.0504,-0.0422,-0.0471,-0.0462,-0.0526,-0.0524,-0.0522,-0.0419,0,0.0594,0.0664,0.0641,0.0646,0.0625,0.0504,0.0487,0.0384,0.0248,0.0172,0.0036,-0.006,-0.0218,-0.0303,-0.0334,-0.0441,-0.0425,-0.048,-0.048,-0.0478,-0.0494,-0.0449,-0.0514,-0.041,-0.0407,-0.0405,-0.0403,0,0.0684,0.0696,0.0758,0.0712,0.0705,0.0711,0.0608,0.0567,0.0465,0.0359,0.0254,0.0117,0.0041,-0.0101,-0.0183,-0.0231,-0.0313,-0.0372,-0.0371,-0.0418,-0.0503,-0.0436,-0.0381,-0.0382,-0.0384,-0.0386,-0.0387,0,0.0699,0.0752,0.079,0.0778,0.0743,0.0754,0.0711,0.062,0.0585,0.0475,0.0426,0.0312,0.0225,0.0128,-0.0086,-0.0139,-0.0148,-0.022,-0.0296,-0.0299,-0.0312,-0.0324,-0.0205,-0.0205,-0.0205,-0.0206,-0.0206,0,0.0722,0.0761,0.0815,0.0817,0.0852,0.0801,0.0819,0.0754,0.0708,0.0673,0.0518,0.0449,0.0262,0.018,0.0022,-0.0106,-0.0059,-0.024,-0.0267,-0.0292,-0.0302,-0.0303,-0.0316,-0.0202,-0.0203,-0.0204,-0.0204,0,0.0704,0.0766,0.0803,0.0831,0.0855,0.0859,0.0883,0.0881,0.083,0.0791,0.0752,0.058,0.0422,0.0284,0.0132,0.0031,-0.0076,-0.0123,-0.0097,-0.0132,-0.0247,-0.0258,-0.0149,-0.0149,-0.015,-0.015,-0.0151,0,0.0681,0.0715,0.0803,0.0848,0.0878,0.091,0.0932,0.0913,0.0885,0.0826,0.0785,0.0665,0.0516,0.0324,0.0147,-0.0022,-0.0092,-0.0075,-0.0192,-0.0198,-0.0236,-0.0247,-0.0257,-0.0152,-0.0152,-0.0152,-0.0152,0,0.0629,0.0713,0.0749,0.0838,0.0904,0.0938,0.095,0.0944,0.0897,0.0924,0.0778,0.0643,0.0494,0.0277,0.0164,0.001,-0.0046,-0.0082,-0.0083,-0.0194,-0.0201,-0.024,-0.025,-0.0154,-0.0154,-0.0154,-0.0153,0,0.0603,0.0623,0.0721,0.079,0.0895,0.0899,0.0914,0.0878,0.087,0.081,0.0759,0.0593,0.0516,0.0293,0.016,0.0038,-0.0022,-0.0043,-0.0047,-0.0046,-0.0091,-0.0091,0.0009,0,0,0,0,0,0.0538,0.058,0.0652,0.0724,0.0838,0.088,0.0899,0.0897,0.0898,0.0799,0.0778,0.0609,0.0391,0.0273,0.0137,0.0119,-0.0047,-0.0039,-0.0074,-0.0165,-0.0163,-0.0242,0,0,0,0,0,0,0.0515,0.0587,0.0622,0.0691,0.0722,0.08,0.0802,0.0792,0.0712,0.0713,0.0569,0.0599,0.0351,0.0461,0.0137,0.0103,0.0069,-0.0119,-0.0121,-0.0166,-0.0164,-0.0162,-0.0244,0,0,0,0,0]}]]